Lid_Strength_Index
-1 -1 1 3 8 8 11 11 10 8 7 6 5 6 6 5 6 8 1 0 -0 -0 -1 -1 -1 -1 -1 -1 -1 -2 -2 -2 -2 -2 -2 -2 -2 -2 -2 -2 -2 -2 -2 -2 -2 -2 -2 -1 -1
-1 3 2 4 10 12 11 10 10 8 7 6 5 6 6 6 3 3 2 0 -0 -0 -1 -1 -1 -1 -1 -1 -1 -1 -2 -2 -2 -2 -2 -2 -2 -2 -2 -2 -2 -2 -2 -2 -2 -2 -1 -1 -1
2 3 6 7 10 12 11 10 10 7 6 6 5 5 5 5 3 2 1 0 -0 -0 -1 -1 -1 -1 -1 -1 -1 -1 -2 -2 -2 -2 -2 -2 -2 -2 -2 -2 -2 -2 -2 -2 -2 -1 -1 -1 -1
4 4 5 9 11 9 9 9 7 7 6 5 4 6 4 2 2 1 0 -0 0 -0 -1 -1 -1 -1 -1 -1 -1 -1 -2 -2 -2 -2 -2 -2 -2 -2 -2 -2 -2 -2 -2 -2 -1 -1 -1 -1 -1
3 5 10 10 10 8 6 7 8 8 7 6 5 6 5 3 1 1 0 0 0 -0 -1 -1 -1 -1 -1 -1 -1 -1 -1 -2 -2 -2 -2 -2 -2 -2 -2 -2 -2 -2 -2 -2 -1 -1 -1 -1 -1
7 5 11 13 11 8 7 7 7 7 6 6 5 6 4 2 2 1 0 0 -0 0 -0 -1 -1 -1 -1 -1 -1 -1 -1 -1 -2 -2 -2 -2 -2 -2 -2 -2 -2 -2 -2 -2 -1 -1 -1 -1 -1
8 8 11 11 10 9 7 7 8 7 6 6 4 6 4 3 1 1 0 0 -0 -0 -0 -0 -1 -1 -1 -1 -1 -1 -1 -1 -1 -1 -1 -2 -2 -2 -2 -2 -2 -2 -2 -2 -1 -1 -1 -1 -1
7 7 11 10 10 9 5 6 6 6 6 4 4 6 5 3 1 1 0 0 0 -0 -0 -0 -1 -1 -1 -1 -1 -1 -1 -1 -1 -1 -1 -1 -2 -2 -2 -1 -2 -2 -1 -1 -1 -1 -1 -1 -1
4 10 11 11 10 9 5 6 5 5 6 5 5 4 4 2 1 1 2 1 1 1 0 -0 -0 -0 -1 -1 -1 -1 -1 -1 -1 -1 -1 -1 -1 -2 -2 -2 -2 -2 -1 -1 -1 -1 -1 -1 -1
6 9 10 8 8 7 6 6 6 6 7 6 6 4 3 3 2 2 2 2 2 1 1 0 -0 -0 -0 -0 -1 -1 -1 -1 -1 -1 -2 -1 -2 -2 -1 -2 -1 -2 -2 -2 -1 -1 -1 -1 -1
6 9 7 7 7 6 6 6 6 6 7 6 6 4 3 3 2 3 2 2 2 1 1 0 -0 -1 -0 -0 -0 -1 -1 -1 -1 -1 -2 -2 -1 -1 -1 -1 -1 -1 -1 -1 -1 -1 -1 -1 -1
9 6 6 6 6 6 7 5 6 6 6 5 4 3 3 3 3 3 2 2 1 1 1 0 -0 -0 -0 -0 -0 -0 -0 -0 -0 -1 -1 -1 -0 -1 -1 -0 -1 -1 -1 -1 -1 -1 -1 -1 -1
8 8 6 5 5 5 5 6 6 5 4 3 3 3 4 3 3 2 2 2 2 1 1 0 -0 0 -0 -0 -0 -0 -0 -0 -0 -1 -1 -1 -0 -0 -0 -0 -1 -1 -1 -1 -1 -1 -1 -1 -1
7 7 7 6 6 6 7 6 6 5 4 4 4 4 4 4 3 3 2 2 2 1 0 -0 -0 -0 -0 0 -0 0 -0 -0 -0 -0 -1 -1 -1 -0 -0 -0 -0 -0 -1 -1 -1 -1 -0 -0 -1
8 10 8 7 6 7 6 8 7 5 4 5 5 5 4 4 3 3 2 1 1 1 0 0 -0 -1 0 0 0 0 -0 -0 -0 -0 -1 -1 -1 -0 -1 -0 -0 -0 -1 -1 -1 -0 -0 -0 -0
9 10 12 9 9 7 7 10 7 5 5 5 5 5 4 3 3 3 2 1 1 1 1 0 1 0 -0 -0 0 -0 -0 -0 -0 -0 -1 -1 -1 -1 -0 -0 -0 -1 -1 -0 -0 -0 0 0 0
10 11 12 11 8 9 9 10 7 6 6 6 5 5 5 4 4 2 3 2 1 0 1 1 -0 0 0 -0 0 -0 -0 -0 -0 -0 -0 -1 -1 -1 -0 -0 -0 -1 -0 -0 -0 0 0 1 0
13 12 11 11 10 9 10 10 8 7 6 6 6 5 5 5 4 3 3 2 1 1 0 0 0 -0 -0 0 0 0 0 0 -0 -0 -0 -1 -1 -1 -0 -0 -1 -1 -0 -0 0 0 -0 0 1
10 10 11 9 8 10 10 9 8 7 7 7 6 6 5 4 3 3 3 1 1 1 1 0 0 0 1 1 2 2 2 1 1 0 -0 -0 -0 -0 -0 -0 -0 -0 0 0 -0 0 1 1 1
11 11 11 9 8 8 9 10 8 8 8 7 7 6 6 4 4 3 3 2 1 1 1 1 0 0 1 1 1 1 1 1 1 0 -0 -0 -0 -0 -0 -0 0 0 0 0 0 1 1 1 1
11 12 11 11 10 9 9 10 9 8 8 8 7 7 6 6 5 3 4 2 1 1 1 1 0 1 1 0 1 1 1 1 1 1 1 0 -0 -0 -0 -0 -0 -0 0 1 0 0 1 2 1
12 10 10 11 11 13 9 14 9 8 9 9 8 7 7 5 5 4 4 3 2 1 1 0 1 1 1 0 1 1 2 3 2 1 1 0 -0 -0 -0 -1 -0 -0 0 0 0 0 1 1 3
11 9 10 10 11 12 12 14 12 9 10 10 8 7 5 5 5 4 4 3 3 2 1 1 1 1 1 1 1 2 2 2 1 1 1 0 0 -0 -0 -0 -0 -0 0 -0 0 0 1 1 2
7 10 10 11 11 15 13 13 13 11 10 9 7 6 6 6 5 5 4 3 3 2 1 1 2 2 1 1 1 1 2 2 2 2 2 1 1 0 -0 -0 -0 -0 -0 0 0 -0 0 1 1
8 10 14 16 16 17 12 13 13 9 9 8 8 7 6 5 5 5 4 4 3 2 2 2 2 2 1 1 1 1 1 1 1 2 2 1 1 1 0 -0 -0 0 -0 -0 -0 -0 0 0 1
10 10 13 18 17 16 12 15 13 8 7 7 7 6 6 5 5 4 4 3 3 2 3 2 2 2 2 1 1 1 1 1 1 1 1 1 1 1 -0 -0 -0 -0 -0 -0 -0 0 0 0 0
10 12 9 13 13 15 14 12 10 9 8 7 8 6 6 5 4 4 4 3 2 3 3 2 2 2 2 1 1 1 1 1 1 1 0 1 0 0 0 -0 -0 -0 -0 -0 -0 0 0 0 0
8 8 13 12 17 18 15 14 13 10 9 8 8 7 6 4 4 4 4 3 3 3 2 2 2 2 2 1 1 1 1 1 1 1 1 0 0 0 0 0 0 -0 -0 -0 -0 0 0 0 1
9 10 10 10 12 16 16 14 9 9 8 8 8 7 6 4 5 5 5 4 3 3 2 2 2 2 2 1 1 1 1 1 1 1 0 0 0 0 0 0 0 0 0 -0 0 0 0 1 1
9 10 10 13 15 14 15 15 8 8 8 7 8 7 6 4 4 5 4 4 4 3 3 3 2 2 2 1 1 1 1 1 1 1 1 0 0 0 0 0 0 0 0 -0 0 1 1 1 1